SCP
0 0 0 0 0 0 0 0 0 0 0 0 0 0 0 0 0 0 0 0 0 0 0 0 0 0 0 0 0 0 0 0 0 0 0 0 0 0 0 0 0 0 0
0 0 0 0 0 0 0 0 0 0 0 0 0 0 0 0 0 0 0 0 0 0 0 0 0 0 0 0 0 0 0 0 0 0 0 0 0 0 0 0 0 0 0
0 0 0 0 0 0 0 0 0 0 0 0 0 0 0 0 0 0 0 0 0 0 0 0 0 0 0 0 0 0 0 0 0 0 0 0 0 0 0 0 0 0 0
0 0 0 0 0 0 0 0 0 0 0 0 0 0 0 0 0 0 0 0 0 0 0 0 0 0 0 0 0 0 0 0 0 0 0 0 0 0 0 0 0 0 0
0 0 0 0 0 0 0 0 0 0 0 0 0 0 0 0 0 0 0 0 0 0 0 0 0 0 0 0 0 0 0 0 0 0 0 0 0 0 0 0 0 0 0
0 0 0 0 0 0 0 0 0 0 0 0 0 0 0 0 0 0 0 0 0 0 0 0 0 0 0 0 0 0 0 0 0 0 0 0 0 0 0 0 0 0 0
0 0 0 0 0 0 0 0 0 0 0 0 0 0 0 0 0 0 0 0 0 0 0 0 0 0 0 0 0 0 0 0 0 0 0 0 0 0 0 0 0 0 0
0 0 0 0 0 0 0 0 0 0 0 0 0 0 0 0 0 0 0 0 0 0 0 0 0 0 0 0 0 0 0 0 0 0 0 0 0 0 0 0 0 0 0
0 0 0 0 0 0 0 0 0 0 0 0 0 0 0 0 0 0 0 0 0 0 0 0 0 0 0 0 0 0 0 0 0 0 0 0 0 0 0 0 0 0 0
0 0 0 0 0 0 0 0 0 0 0 0 0 0 0 0 0 0 0 0 0 0 0 0 0 0 0 0 0 0 0 0 0 0 0 0 0 0 0 0 0 0 0
0 0 0 0 0 0 0 0 0 0 0 0 0 0 0 0 0 0 0 0 0 0 0 0 0 0 0 0 0 0 0 0 0 0 0 0 0 0 0 0 0 0 0
0 0 0 0 0 0 0 0 0 0 0 0 0 0 0 0 0 0 0 0 0 0 0 0 0 0 0 0 0 0 0 0 0 0 0 0 0 0 0 0 0 0 0
0 0 0 0 0 0 0 0 0 0 0 0 0 0 0 0 0 0 0 0 0 0 0 0 0 0 0 0 0 0 0 0 0 0 0 0 0 0 0 0 0 0 0
0 0 0 0 0 0 0 0 0 0 0 0 0 0 0 0 0 0 0 0 0 0 0 0 0 0 0 0 0 0 0 0 0 0 0 0 0 0 0 0 0 0 0
0 0 0 0 0 0 0 0 0 0 0 0 0 0 0 0 0 0 0 0 0 0 0 0 0 0 0 0 0 0 0 0 0 0 0 0 0 0 0 0 0 0 0
0 0 0 0 0 0 0 0 0 0 0 0 0 0 0 0 0 0 0 0 0 0 0 0 0 0 0 0 0 0 0 0 0 0 0 0 0 0 0 0 0 0 0
0 0 0 0 0 0 0 0 0 0 0 0 0 0 0 0 0 0 0 0 0 0 0 0 0 0 0 0 0 0 0 0 0 0 0 0 0 0 0 0 0 0 0
0 0 0 0 0 0 0 0 0 0 0 0 0 0 0 0 0 0 0 0 0 0 0 0 0 0 0 0 0 0 0 0 0 0 0 0 0 0 0 0 0 0 0
0 0 0 0 0 0 0 0 0 0 0 0 0 0 0 0 0 0 0 0 0 0 0 0 0 0 0 0 0 0 0 0 0 0 0 0 0 0 0 0 0 0 0
0 0 0 0 0 0 0 0 0 0 0 0 0 0 0 0 0 0 0 0 0 0 0 0 0 0 0 0 0 0 0 0 0 0 0 0 0 0 0 0 0 0 0
0 0 0 0 0 0 0 0 0 0 0 0 0 0 0 0 0 0 0 0 0 0 0 0 0 0 0 0 0 0 0 0 0 0 0 0 0 0 0 0 0 0 0
0 0 0 0 0 0 0 0 0 0 0 0 0 0 0 0 0 0 0 0 0 0 0 0 0 0 0 0 0 0 0 0 0 0 0 0 0 0 0 0 0 0 0
0 0 0 0 0 0 0 0 0 0 0 0 0 0 0 0 0 0 0 0 0 0 0 0 0 0 0 0 0 0 0 0 0 0 0 0 0 0 0 0 0 0 0
0 0 0 0 0 0 0 0 0 0 0 0 0 0 0 0 0 0 0 0 0 0 0 0 0 0 0 0 0 0 0 0 0 0 0 0 0 0 0 0 0 0 0
0 0 0 0 0 0 0 0 0 0 0 0 0 0 0 0 0 0 0 0 0 0 0 0 0 0 0 0 0 0 0 0 0 0 0 0 0 0 0 0 0 0 0
0 0 0 0 0 0 0 0 0 0 0 0 0 0 0 0 0 0 0 0 0 0 0 0 0 0 0 0 0 0 0 0 0 0 0 0 0 0 0 0 0 0 0
Wind_Speed
0 0 0 0 1 1 1 1 1 1 1 1 1 2 2 3 3 3 2 6 7 8 9 9 8 9 9 9 9 9 10 10 10 9 9 9 9 9 9 9 9 8 8
1 0 0 1 1 1 1 1 1 1 1 1 1 1 2 2 3 3 2 4 6 7 7 7 7 7 8 9 9 9 9 9 10 10 10 10 10 10 10 10 10 9 9
2 1 1 1 0 1 1 1 2 1 1 1 1 1 1 2 2 3 3 2 3 5 6 7 6 6 6 8 9 9 9 9 10 10 10 10 10 10 10 10 10 10 9
2 2 1 1 0 1 1 1 1 1 1 1 1 1 0 1 2 2 2 2 2 2 4 7 6 6 6 8 8 8 9 10 10 10 10 11 11 11 11 11 11 10 10
2 2 1 1 1 1 1 1 1 1 1 1 1 1 0 0 1 2 2 2 2 2 2 3 5 6 7 7 7 8 8 9 10 11 11 12 12 12 11 12 12 11 11
2 2 1 1 1 1 1 1 1 1 1 1 1 1 1 0 0 1 2 2 2 3 3 2 2 3 5 5 6 7 8 9 10 11 11 13 13 12 12 12 12 12 12
1 2 1 1 1 1 1 2 1 1 0 1 1 1 2 1 1 1 1 1 2 2 1 2 2 2 2 4 5 6 7 8 10 10 10 10 11 11 12 12 13 13 13
1 1 1 1 1 1 1 1 2 1 0 1 1 1 1 2 1 1 1 1 2 1 1 2 2 2 2 2 2 4 5 7 7 8 9 9 10 10 11 12 12 12 12
1 1 1 1 1 1 1 1 2 2 1 1 1 2 2 1 1 1 1 0 1 1 1 1 2 2 2 1 2 2 3 3 4 5 4 5 5 7 8 9 10 10 10
1 1 1 1 1 0 1 1 1 1 2 1 1 1 1 2 2 0 1 1 0 0 1 1 1 0 1 1 1 0 0 0 1 2 1 1 1 2 4 5 6 6 7
0 0 1 1 1 0 1 1 1 1 1 2 1 1 1 1 1 2 1 1 1 1 1 1 1 1 1 1 1 1 2 2 2 1 1 0 0 0 0 1 2 3 4
0 0 0 1 1 1 1 1 1 1 2 2 1 1 2 2 2 2 2 1 0 1 1 1 1 2 2 2 2 4 4 4 4 4 4 3 2 2 2 1 1 1 1
0 1 0 0 0 1 1 1 1 1 1 1 1 1 2 2 2 2 2 1 1 1 1 1 2 2 2 2 3 7 7 6 6 6 6 5 5 5 5 5 4 4 3
1 1 0 0 1 1 1 0 0 1 0 1 1 1 1 1 2 2 3 3 2 1 1 1 1 2 3 3 5 7 6 8 7 7 7 7 7 7 7 7 6 6 6
1 1 1 1 0 1 1 0 0 0 1 1 1 0 0 0 1 1 2 3 3 2 0 0 1 2 3 4 6 5 5 10 11 10 10 10 10 10 9 9 8 8 7
0 1 1 1 2 2 2 2 2 2 2 1 1 2 1 1 1 1 1 1 2 3 2 1 1 2 3 5 7 6 7 11 12 11 11 11 11 11 11 11 11 10 9
1 1 2 2 2 3 3 3 3 3 3 3 3 2 2 2 2 1 1 2 2 2 3 2 2 3 4 5 5 5 6 5 7 12 12 12 12 12 11 11 11 11 11
2 3 3 3 3 3 3 3 3 4 4 4 4 4 3 3 3 2 2 2 2 2 4 4 2 3 3 4 4 5 5 5 5 11 12 12 11 12 11 10 11 10 10
4 4 4 4 3 3 3 3 4 4 4 4 4 4 4 3 4 3 3 3 3 3 3 5 3 2 3 3 4 5 5 4 5 7 9 10 10 11 11 10 10 10 9
4 4 4 4 4 4 4 4 5 5 5 5 5 5 4 4 3 3 3 3 4 5 4 5 4 3 3 2 2 3 3 3 4 5 6 7 9 10 11 10 10 9 8
5 4 5 4 4 4 4 4 5 5 5 5 6 6 6 8 8 5 4 4 4 4 4 4 4 3 2 2 2 1 2 2 3 3 3 4 4 4 5 7 8 8 8
5 5 5 5 5 4 7 8 6 5 5 6 6 5 6 7 10 11 11 9 6 5 5 4 3 3 2 2 2 2 2 2 1 2 2 2 3 3 3 3 6 6 6
5 5 5 5 6 6 8 8 9 6 6 5 5 4 5 6 7 6 9 11 10 9 7 4 4 2 2 2 3 3 2 1 1 1 1 2 2 2 2 3 5 4 4
5 4 5 5 5 6 9 9 9 7 6 5 5 4 5 5 5 6 6 7 7 6 5 4 4 3 2 2 2 3 3 2 2 2 1 1 1 1 2 2 4 4 4
5 4 4 5 5 5 7 7 7 5 5 5 5 5 5 5 7 8 6 6 6 5 7 9 8 7 7 6 4 3 3 3 2 1 1 1 1 1 1 1 2 4 4
5 5 5 4 4 4 5 6 6 4 4 4 4 5 7 7 8 7 6 5 5 3 4 5 7 7 6 6 6 3 2 2 1 0 0 0 0 1 1 1 1 2 2
Wind_Direction
107 66 42 41 45 69 71 57 57 54 64 84 145 166 177 180 177 181 195 201 202 201 202 200 197 199 199 200 203 204 206 205 205 205 205 204 204 206 203 203 203 205 203
154 135 24 43 37 58 70 81 72 67 55 83 108 163 181 182 183 191 199 205 206 199 200 202 200 200 202 206 209 210 210 209 210 209 211 212 212 213 212 212 211 209 207
164 159 131 77 26 42 63 68 62 63 56 63 65 106 160 183 188 194 199 204 209 202 198 204 208 209 213 214 216 217 216 217 216 215 214 214 215 218 216 215 214 211 209
157 141 143 161 167 116 106 99 85 67 52 60 31 4 88 162 191 195 194 200 202 207 213 217 216 217 223 222 223 224 221 220 219 219 219 218 219 221 219 219 219 216 214
147 142 148 169 141 117 108 123 104 124 115 73 48 29 51 164 202 197 193 197 199 205 215 230 229 224 227 230 232 230 226 223 222 224 226 226 225 225 223 222 221 221 220
153 147 150 166 145 130 118 133 136 121 135 124 78 37 17 251 159 199 209 199 198 211 217 223 236 247 246 251 251 244 236 230 224 225 229 230 228 226 225 226 224 224 225
154 159 166 163 161 161 177 166 140 132 135 129 91 32 19 37 76 218 209 200 209 217 216 230 231 240 262 268 265 257 249 244 233 227 230 231 229 229 228 229 229 228 229
183 171 151 162 177 168 151 157 150 144 197 147 136 107 359 0 356 296 197 203 216 213 226 236 226 225 242 250 282 264 257 251 241 231 228 230 234 236 236 236 233 229 228
128 118 151 149 141 156 180 193 176 177 202 211 173 156 162 221 309 352 349 232 212 227 241 247 236 231 233 244 263 288 263 250 242 241 237 231 232 236 237 237 233 229 226
84 110 127 132 137 157 190 214 187 190 184 223 227 212 196 173 166 158 3 33 81 253 276 299 324 297 261 254 252 55 23 282 236 225 222 215 213 232 236 233 234 234 225
73 174 164 135 131 192 247 233 192 198 195 200 207 197 183 166 169 167 221 0 31 28 23 29 31 16 14 7 323 58 83 70 70 83 84 204 259 300 301 254 256 249 241
350 308 192 165 167 196 242 251 220 211 219 212 216 198 176 172 182 174 188 204 43 27 38 38 41 31 38 40 49 65 75 76 76 68 62 58 59 55 51 30 333 298 276
280 274 227 181 219 234 240 244 226 246 222 222 227 221 198 195 174 166 160 171 143 66 46 40 35 42 55 51 52 65 69 75 80 77 71 63 61 63 60 55 52 43 36
238 251 159 168 228 240 247 225 228 254 219 239 258 227 191 196 172 173 166 159 148 85 58 48 43 45 53 58 58 62 62 65 77 77 73 69 65 64 62 57 52 47 44
211 90 91 83 38 46 51 81 58 356 48 35 17 35 144 141 154 173 173 171 164 161 159 67 65 45 62 65 57 62 65 66 69 71 69 67 65 64 62 61 58 56 56
128 95 77 55 41 45 51 68 55 43 59 32 51 56 35 30 71 98 155 163 166 158 153 108 79 59 69 75 62 61 65 69 67 68 68 66 64 63 61 61 60 59 58
109 100 85 70 59 53 57 73 67 58 61 48 46 57 39 44 63 63 84 108 122 132 135 99 67 63 63 70 62 62 63 60 65 67 68 67 66 66 64 62 61 60 59
93 91 83 74 70 66 64 72 70 63 64 57 49 55 44 54 56 54 68 84 99 115 131 121 89 64 65 71 67 66 63 64 67 66 67 66 64 63 61 59 58 56 55
89 82 83 79 72 69 68 68 77 74 68 62 58 60 49 59 58 58 66 73 81 91 101 116 103 75 72 73 71 67 61 51 63 63 61 60 59 59 59 59 58 55 53
90 83 80 78 73 70 69 71 75 73 68 59 54 55 52 59 65 68 70 83 95 96 97 105 102 86 78 72 84 82 67 49 53 54 54 55 53 55 54 55 57 57 52
90 89 87 77 72 74 73 78 78 78 72 64 55 51 55 62 63 65 77 88 100 103 104 106 104 94 91 100 100 100 94 76 54 41 47 46 40 41 40 42 48 53 53
86 85 86 85 77 74 76 80 86 79 74 69 61 54 58 56 62 64 68 73 86 110 118 110 105 113 109 115 108 119 124 110 78 19 42 41 37 39 32 36 38 43 45
92 87 82 83 81 77 80 83 85 87 78 68 60 56 60 55 59 67 68 67 64 68 88 117 118 124 133 150 138 126 120 97 88 38 72 55 25 26 17 31 32 34 33
97 91 82 79 81 81 83 85 87 82 77 66 61 63 69 54 57 72 73 66 57 50 59 77 99 100 101 119 136 140 134 110 87 55 32 60 23 12 8 7 14 27 31
94 88 87 85 85 79 84 90 88 84 76 61 53 58 68 65 60 72 79 76 65 51 59 68 73 73 75 80 98 113 110 107 80 42 32 72 16 353 348 350 2 18 22
102 95 83 76 80 76 79 88 90 92 84 69 55 51 63 71 67 73 83 86 78 61 61 60 56 52 56 60 64 80 120 122 105 88 50 86 8 338 338 359 343 349 359